User: anonymous
Location: Waning Moon II Observatory
(30.3730°N, 89.7620°W)
Time: 03:13:44
(UTC-05:00)
Language:

Cosmos 1825 Rocket - Orbit

View from above orbital plane
View from above orbital plane
View from above satellite
View from above satellite

Ground track
Ground track

The orbit data is extracted from the following two-line orbital elements,

1 17567U 87024B   14242.13918690  .00000288  00000-0  32286-4 0  4412
2 17567 082.5269 075.3400 0020957 116.3349 357.3968 14.83120353484949
Epoch (UTC): 30 August 2014 03:20:25
Eccentricity: 0.0020957
inclination: 82.5269°
perigee height: 605 km
apogee height: 634 km
right ascension of ascending node: 75.3400°
argument of perigee: 116.3349°
revolutions per day: 14.83120353
mean anomaly at epoch: 357.3968°
orbit number at epoch: 48494

The dashed part of the orbit path shows where the satellite is in the earth's shadow,  

DLR